458  
ASUS42 KTBW 022010  
RWRFL  
FLORIDA REGIONAL WEATHER ROUNDUP  
NATIONAL WEATHER SERVICE TAMPA BAY RUSKIN FL  
300 PM EST MON MAR 02 2015  
 
NOTE: "FAIR" INDICATES FEW OR NO CLOUDS BELOW 12,000 FEET WITH NO  
SIGNIFICANT WEATHER AND/OR S TO VISIBILITY
.  
 
 
FLZ001>010-012>015-112-114-115-022100-  
PANHANDLE FLORIDA  
 
CITY SKY/WX TMP DP RH WIND PRES REMARKS
 
PENSACOLA CLOUDY 68 61 78 SE8 30.24F  
PENSACOLA NAS CLOUDY 65 62 90 SE7 30.24F FOG  
CRESTVIEW CLOUDY 73 63 70 SE5 30.25F  
DUKE FIELD CLOUDY 72 63 72 S6 30.23F  
VALPARAISO CLOUDY 66 59 78 S5 30.24F  
MARY ESTHER CLOUDY 65 57 77 S8 30.24F  
PANAMA CITY CLOUDY 73 63 70 S6 30.24S  
TYNDALL AFB PTSUNNY 69 63 80 SW5 30.25F  
APALACHICOLA SUNNY 72 63 73 S7 30.24F  
 
STATION/POSITION SKY/WX TEMP WIND PRES WAVE SWELL
 
AIR SEA DIR/SP/G HT/PER HT/PER  
(F) (DEG/KT/KT) (MB) (FT/S) (FT/S)  
30.1N 87.6W 63 64 90/ 8/ 10 1023.3F 2/ 5 2/ 5  
29.2N 88.2W 71 72 150/ 12/ 12 1023.7F 3/ 5 2/ 5  
28.7N 86.0W 67 67 200/ 4/ 6 1024.3F 2/ 6 2/ 6  
PANAMA CITY BEAC 62 60 220/ 4/ 4 1024.3F  
CAPE SAN BLAS NOT AVBL  
TOWER C 59 360/ 4/ 4 1024.1F  
28.5N 84.5W 65 67 150/ 6/ 8 1023.6F 1/ 7  
 

 
FLZ011-016>038-118-127-128-134-139-239-022100-  
NORTH FLORIDA  
 
CITY SKY/WX TMP DP RH WIND PRES REMARKS
 
MARIANNA CLOUDY 67 61 81 CALM 30.25F  
TALLAHASSEE PTSUNNY 79 61 53 N8 30.23F  
PERRY MOSUNNY 78 66 66 W8 30.23F  
CROSS CITY N/A 83 66 56 SW8 30.21F  
LAKE CITY PTSUNNY 81 63 54 W6 30.22F  
GAINESVILLE SUNNY 80 63 55 W5 30.22F  
MAYPORT NAS FOG 60 56 86 NE9 30.24F VSB 1/2  
JACKSONVILLE PTSUNNY 76 65 68 NE10 30.22F  
JAX NAS PTSUNNY 79 63 57 SE6 30.22F  
JAX CRAIG MOSUNNY 69 59 70 NE9 30.23F  
JAX CECIL PTSUNNY 81 64 57 SW3 30.21F  
FERNANDINA BEA FAIR 63 57 82 E8 30.24S  
ST AUGUSTINE MOSUNNY 69 62 78 SE8 30.23F  
 
STATION/POSITION SKY/WX TEMP WIND PRES WAVE SWELL
 
AIR SEA DIR/SP/G HT/PER HT/PER  
(F) (DEG/KT/KT) (MB) (FT/S) (FT/S)  
SHELL POINT NOT AVBL  
KEATON BEACH 60 300/ 5/ 6 1024.3F  
CEDAR KEY 69 230/ 3/ 4 1024.6F  
FERNANDINA 62 54 70/ 5/ 8 1023.4F  
30.7N 81.3W 53 N/A 3/ 7  
MAYPORT 56 57 60/ 8/ 10 1024.0F  
31.4N 80.9W 53 54 200/ 6/ 8 1023.8F 3/ 9 3/ 9  
ST AUGUSTINE 57 120/ 3/ 4 1024.2F  
 

 
FLZ040-043>046-052-053-057-058-063-144-022100-  
INTERIOR CENTRAL FLORIDA  
 
CITY SKY/WX TMP DP RH WIND PRES REMARKS
 
OCALA MOSUNNY 82 63 51 CALM 30.22F  
THE VILLAGES N/A 82 64 54 VRB6 30.13F  
LEESBURG MOSUNNY 80 65 59 S5 30.23F  
SANFORD MOSUNNY 80 63 55 CALM 30.22F  
ORLANDO EXEC MOSUNNY 80 64 58 N6 30.22F  
ORLANDO INTL PTSUNNY 81 66 60 N5 30.21F  
KISSIMMEE PTSUNNY 81 66 61 E7 30.22F  
WINTER HAVEN PTSUNNY 82 64 54 VRB3 30.23F  
LAKELAND MOSUNNY 79 64 61 CALM 30.22F  
BARTOW PTSUNNY 79 63 57 NE5 30.22F  
OKEECHOBEE MOSUNNY 86 61 42 NE7 30.20F  
 

 
FLZ041-047-054-059-064-141-147-022100-  
EAST CENTRAL FLORIDA  
 
CITY SKY/WX TMP DP RH WIND PRES REMARKS
 
DAYTONA BEACH PTSUNNY 78 64 61 E7 30.23F  
DELAND N/A N/A N/A N/A CALM 30.23F  
NEW SMYRNA BEA MOSUNNY 72 63 73 E8 30.24F  
JFK SPACE CTR MOSUNNY 71 64 80 NE8 30.22F  
TITUSVILLE MOSUNNY 73 66 78 N14 30.24F  
CAPE CANAVERAL SUNNY 72 64 77 N9 30.22F  
PATRICK AFB SUNNY 69 65 89 NE10 30.22F  
MELBOURNE MOSUNNY 73 65 75 NE12 30.22F  
VERO BEACH SUNNY 76 66 71 NE10 30.22F  
FT PIERCE SUNNY 78 68 71 VRB7 30.21F  
STUART MOSUNNY 77 66 69 NE8 30.23  
 
STATION/POSITION SKY/WX TEMP WIND PRES WAVE SWELL
 
AIR SEA DIR/SP/G HT/PER HT/PER  
(F) (DEG/KT/KT) (MB) (FT/S) (FT/S)  
28.5N 80.2W 66 71 340/ 8/ 8 1024.2F  
28.9N 78.5W 74 76 230/ 4/ 6 1023.6F 5/10 5/10  
TRIDENT PIER 74 65 10/ 7/ 10 1024.1F  
28.4N 80.5W 64 N/A 3/10 2/11  
27.6N 80.2W 72 N/A 4/ 9 2/11  
 

 
FLZ050-056-061-142-242-148-248-149-249-151-251-155-255-  
160-260-022100-  
WEST CENTRAL FLORIDA  
 
CITY SKY/WX TMP DP RH WIND PRES REMARKS
 
CRYSTAL RIVER FAIR 81 64 57 W8 30.22F  
INVERNESS FAIR 82 59 44 CALM 30.22F  
BROOKSVILLE SUNNY 81 64 56 SW3 30.22F  
ZEPHYRHILLS CLOUDY 81 59 47 CALM 30.22F  
CLEARWATER SUNNY 81 63 54 N7 30.21F  
TAMPA INTL MOSUNNY 79 65 62 SW8 30.21F  
TAMPA EXEC MOSUNNY 84 64 51 CALM 30.22F  
PLANT CITY PTSUNNY N/A N/A N/A E5 30.23F  
MACDILL AFB MOSUNNY 82 69 65 SE6 30.21F  
PETER O KNIGHT MOSUNNY 82 70 65 S3 30.21F  
ST PETERSBURG PTSUNNY 78 65 63 NE3 30.20F  
SARASOTA CLOUDY 77 68 73 W12 30.19F  
VENICE FAIR 75 68 78 W9 30.21F  
 
STATION/POSITION SKY/WX TEMP WIND PRES WAVE SWELL
 
AIR SEA DIR/SP/G HT/PER HT/PER  
(F) (DEG/KT/KT) (MB) (FT/S) (FT/S)  
CEDAR KEY 69 230/ 3/ 4 1024.6F  
28.5N 84.5W 65 67 150/ 6/ 8 1023.6F 1/ 7  
27.3N 84.3W 71 N/A 2/ 4  
CLEARWATER BEACH NOT AVBL  
MIDDLE TAMPA BAY 71 340/ 7/ 8 1023.5F  
VENICE 72 64 290/ 7/ 8 1022.3F  
 

 
FLZ066-069-070-075>078-162-262-165-265-022100-  
SOUTHWEST FLORIDA AND KEYS  
 
CITY SKY/WX TMP DP RH WIND PRES REMARKS
 
PUNTA GORDA PTSUNNY 84 63 49 E9 30.20F  
FT MYERS PTSUNNY 84 63 49 NE9 30.17F  
SOUTHWEST INTL PTSUNNY 84 61 45 NE12 30.17F  
NAPLES MOSUNNY 79 69 71 W10 30.18F  
MARCO ISLAND PTCLDY 81 66 61 W12 30.17F  
IMMOKALEE PTCLDY N/A N/A N/A NE6 30.18F  
MARATHON SUNNY 80 69 69 E10 30.16F  
KEY WEST NAS MOSUNNY 79 69 71 E16 30.16F  
KEY WEST INTL SUNNY 79 70 74 E14 30.17F  
 
STATION/POSITION SKY/WX TEMP WIND PRES WAVE SWELL
 
AIR SEA DIR/SP/G HT/PER HT/PER  
(F) (DEG/KT/KT) (MB) (FT/S) (FT/S)  
VENICE 72 64 290/ 7/ 8 1022.3F  
NAPLES 71 68 300/ 6/ 7 1021.8F  
26.0N 85.6W 74 78 40/ 10/ 12 1022.3F 3/ 4 2/ 5  
DRY TORTUGAS 72 70/ 10/ 11 1022.0F  
NW FL BAY 77 120/ 11/ 13 1022.8F  
SAND KEY 75 90/ 12/ 14 1021.4F  
SOMBRERO KEY 76 90/ 13/ 13 1021.8F  
LONG KEY 76 78 70/ 8/ 12 1022.8F  
MOLASSES REEF 75 78 80/ 12/ 13 1021.4F  
 

 
FLZ067-068-071>074-168-172>174-022100-  
SOUTHEAST FLORIDA  
 
CITY SKY/WX TMP DP RH WIND PRES REMARKS
 
W PALM BEACH MOSUNNY 80 66 62 E12 30.19F  
FT LAUDER-EXEC MOSUNNY 81 65 58 E12 30.19F  
FT LAUDERDALE MOSUNNY 78 69 73 E12 30.18F  
POMPANO BEACH MOSUNNY 79 66 64 E9 30.19F  
PEMBROKE PINES PTSUNNY 82 64 54 E12 30.19F  
OPA LOCKA MOSUNNY 81 63 54 E13 30.19F  
MIAMI MOSUNNY 81 62 52 E10G18 30.18F  
WEST KENDALL SUNNY 80 63 55 SE10 30.18F  
HOMESTEAD SUNNY 79 65 61 E10 30.17F  
 
STATION/POSITION SKY/WX TEMP WIND PRES WAVE SWELL
 
AIR SEA DIR/SP/G HT/PER HT/PER  
(F) (DEG/KT/KT) (MB) (FT/S) (FT/S)  
PORT EVERGLADES 77 90/ 6/ 8 1022.3  
VIRGINIA KEY 76 76 90/ 7/ 9 1021.7F  
LAKE WORTH 75 76 60/ 7/ 9 1022.4F  
SETTLEMENT POINT 74 50/ 11/ 12 1023.2F  
 

 
 
CLICK HERE TO GO TO PREVIOUS BULLETINS.

The Nexlab FL Page Main Text Page